Change the Weather History Date:

Thursday, August 28, 2014

  Actual Average Record
Temperature  
Mean Temperature 80 °F 80 °F  
Max Temperature 95 °F 91 °F 102 °F (1924)
Min Temperature 65 °F 69 °F 54 °F (1986)
Degree Days  
Heating Degree Days 0 0  
Month to date heating degree days 0 0  
Since 1 June heating degree days 0 0  
Since 1 July heating degree days 0 0  
Cooling Degree Days 15 15  
Month to date cooling degree days 442 465  
Year to date cooling degree days 1621 1734  
Since 1 June cooling degree days 1306 1412  
Growing Degree Days 30 (Base 50)    
Moisture  
Dew Point 67 °F    
Average Humidity 63    
Maximum Humidity 93    
Minimum Humidity 33    
Precipitation  
Precipitation 0.00 in 0.10 in 1.65 in (1978)
Month to date precipitation 2.71 2.15  
Year to date precipitation 38.53 34.25  
Sea Level Pressure  
Sea Level Pressure 29.99 in    
Wind  
Wind Speed 1 mph (ESE)    
Max Wind Speed 7 mph    
Max Gust Speed -    
Visibility 8 miles    
Events      
T = Trace of Precipitation, MM = Missing Value Source: NWS Daily Summary

Daily Weather History Graph

Daily Weather History Graph

Search for Another Location

Airport or City:

Trip Planner

Search our weather history database for the weather conditions in past years. The results will help you decide how hot, cold, wet, or windy it might be!

Date:

Astronomy

Aug. 28, 2014 Rise Set
Actual Time 6:35 AM CDT 7:34 PM CDT
Civil Twilight 6:09 AM CDT 7:59 PM CDT
Nautical Twilight 5:39 AM CDT 8:30 PM CDT
Astronomical Twilight 5:08 AM CDT 9:01 PM CDT
Moon 9:17 AM CDT (8/28) 9:10 PM CDT (8/28)
Length of Visible Light 13h 50m
Length of Day
12h 59m
Waxing Crescent, 9% of the Moon is Illuminated
Aug 28
Waxing Crescent
Sep 2
First Quarter
Sep 8
Full
Sep 15
Last Quarter
Sep 24
New

Hourly Weather History & Observations

Time (CDT) Temp. Heat Index Dew Point Humidity Pressure Visibility Wind Dir Wind Speed Gust Speed Precip Events Conditions
12:53 AM 71.1 °F - 68.0 °F 90% 30.03 in 10.0 mi Calm Calm - N/A   Clear
1:53 AM 71.1 °F - 68.0 °F 90% 30.02 in 9.0 mi Calm Calm - N/A   Clear
2:53 AM 70.0 °F - 66.9 °F 90% 30.01 in 7.0 mi Calm Calm - N/A   Clear
3:53 AM 68.0 °F - 66.0 °F 93% 30.01 in 7.0 mi Calm Calm - N/A   Clear
4:53 AM 66.9 °F - 64.9 °F 93% 30.01 in 2.0 mi Calm Calm - N/A   Clear
5:08 AM 66.2 °F - 64.4 °F 94% 30.00 in 4.0 mi Calm Calm - N/A   Clear
5:53 AM 68.0 °F - 66.0 °F 93% 30.01 in 6.0 mi Calm Calm - N/A   Clear
6:09 AM 66.2 °F - 64.4 °F 94% 30.00 in 3.0 mi Calm Calm - N/A   Clear
6:53 AM 66.9 °F - 64.9 °F 93% 30.02 in 6.0 mi Calm Calm - N/A   Clear
7:53 AM 73.9 °F - 69.1 °F 85% 30.03 in 8.0 mi Calm Calm - N/A   Clear
8:53 AM 79.0 °F - 69.1 °F 72% 30.03 in 9.0 mi ESE 3.5 mph - N/A   Clear
9:53 AM 82.4 °F 86.3 °F 69.8 °F 66% 30.01 in 9.0 mi ESE 3.5 mph - N/A   Clear
10:53 AM 87.1 °F 91.3 °F 69.1 °F 55% 30.04 in 10.0 mi East 3.5 mph - N/A   Clear
11:53 AM 90.0 °F 91.7 °F 64.9 °F 43% 30.02 in 10.0 mi Calm Calm - N/A   Clear
12:53 PM 91.0 °F 91.5 °F 62.1 °F 38% 30.01 in 10.0 mi Calm Calm - N/A   Scattered Clouds
1:53 PM 91.0 °F 93.0 °F 64.9 °F 42% 29.99 in 9.0 mi Calm Calm - N/A   Mostly Cloudy
2:53 PM 93.0 °F 93.8 °F 62.1 °F 36% 29.97 in 10.0 mi NNE 4.6 mph - N/A   Partly Cloudy
3:53 PM 93.0 °F 93.8 °F 62.1 °F 36% 29.95 in 10.0 mi NW 3.5 mph - N/A   Clear
4:53 PM 93.9 °F 93.6 °F 60.1 °F 32% 29.93 in 10.0 mi Calm Calm - N/A   Clear
5:53 PM 91.9 °F 93.3 °F 64.0 °F 39% 29.92 in 10.0 mi Calm Calm - N/A   Clear
6:53 PM 87.1 °F 94.5 °F 73.0 °F 63% 29.91 in 10.0 mi Calm Calm - N/A   Clear
7:53 PM 81.0 °F 84.1 °F 69.1 °F 67% 29.92 in 9.0 mi ENE 6.9 mph - N/A   Clear
8:53 PM 75.9 °F - 69.1 °F 79% 29.94 in 10.0 mi SSW 4.6 mph - N/A   Clear
9:53 PM 75.0 °F - 70.0 °F 84% 29.96 in 10.0 mi SSE 4.6 mph - N/A   Clear
10:53 PM 77.0 °F - 70.0 °F 79% 29.97 in 10.0 mi South 3.5 mph - N/A   Partly Cloudy
11:53 PM 75.0 °F - 70.0 °F 84% 29.97 in 10.0 mi Calm Calm - N/A   Partly Cloudy